User: anonymous   Login
Location: Unspecified
(0.0000°N, 0.0000°E)
Time: 03:30:15
(UTC+02:00)
Language:

Timation 2 Rocket - Orbit

View from above orbital plane
View from above orbital plane
View from above satellite
View from above satellite

Ground track
Ground track

The orbit data is extracted from the following two-line orbital elements,

1  4159U 69082AB  15245.87859711 -.00000031 +00000-0 +20033-4 0  9994
2  4159 069.9617 061.3432 0115498 184.1063 175.9095 13.72313759298454
Epoch (UTC): 02 September 2015 21:05:10
Eccentricity: 0.0115498
inclination: 69.9617°
perigee height: 906 km
apogee height: 1076 km
right ascension of ascending node: 61.3432°
argument of perigee: 184.1063°
revolutions per day: 13.72313759
mean anomaly at epoch: 175.9095°
orbit number at epoch: 29845

The dashed part of the orbit path shows where the satellite is in the earth's shadow,  

DLR